Location: Great Falls
(47.5000°N, 111.3000°W)
Time: 05:38:40
(UTC-07:00)

N. Korean satellite - Visible Passes

Search period start: 18 December 2018 00:00
Search period end: 28 December 2018 00:00
Orbit: 457 x 511 km, 97.2° (Epoch: 17 December)

Date Brightness Start Highest point End Pass type
(mag) Time Alt. Az. Time Alt. Az. Time Alt. Az.
18 Dec 6.6 06:51:01 10° NNE 06:54:38 89° ESE 06:58:17 10° SSW visible
18 Dec 6.6 17:29:56 10° SSE 17:33:16 51° ENE 17:36:39 10° N visible
18 Dec 10.0 19:05:55 10° WSW 19:07:04 11° W 19:08:13 10° WNW visible
19 Dec 7.9 06:26:32 10° NNE 06:30:02 44° E 06:33:32 10° S visible
19 Dec 9.2 18:39:34 10° SW 18:42:15 21° W 18:44:59 10° NW visible
20 Dec 9.2 06:02:22 10° NE 06:05:20 23° E 06:08:18 10° SSE visible
20 Dec 7.8 18:14:16 10° S 18:17:32 41° W 18:20:51 10° NNW visible
21 Dec 10.0 05:38:51 10° ENE 05:40:33 13° E 05:42:15 10° ESE visible
21 Dec 6.7 07:10:45 10° N 07:14:17 52° WNW 07:17:52 10° SSW visible
21 Dec 6.4 17:49:27 10° SSE 17:52:53 87° WSW 17:56:24 10° NNW visible
22 Dec 6.7 06:46:05 10° NNE 06:49:44 79° ESE 06:53:25 10° S visible
22 Dec 6.7 17:25:03 10° SE 17:28:21 45° ENE 17:31:42 10° N visible
22 Dec 9.9 19:00:26 10° WSW 19:02:04 13° W 19:03:45 10° WNW visible
23 Dec 8.1 06:21:38 10° NNE 06:25:06 39° E 06:28:34 10° SSE visible
23 Dec 9.0 18:34:24 10° SSW 18:37:16 24° W 18:40:10 10° NW visible
24 Dec 9.3 05:57:32 10° NE 06:00:22 21° E 06:03:14 10° SE visible
24 Dec 7.4 07:30:36 10° N 07:33:52 31° WNW 07:37:09 10° SW visible
24 Dec 7.6 18:09:13 10° S 18:12:32 47° W 18:15:58 10° NNW visible
25 Dec 10.1 05:34:15 10° ENE 05:35:33 11° E 05:36:52 10° ESE visible
25 Dec 6.6 07:05:45 10° N 07:09:22 60° WNW 07:13:00 10° SSW visible
25 Dec 6.4 17:44:28 10° SSE 17:47:55 82° ENE 17:51:27 10° N visible
26 Dec 7.0 06:41:06 10° NNE 06:44:46 69° E 06:48:29 10° S visible
26 Dec 6.9 17:20:07 10° SE 17:23:23 39° ENE 17:26:42 10° N visible
26 Dec 9.8 18:55:01 10° SW 18:57:02 15° W 18:59:06 10° NW visible
27 Dec 8.4 06:16:42 10° NNE 06:20:07 35° E 06:23:32 10° SSE visible
27 Dec 8.8 18:29:14 10° SSW 18:32:14 27° W 18:35:19 10° NW visible
